If you wish to contribute or participate in the discussions about articles you are invited to join SKYbrary as a registered user

 Actions

Tarbes-Lourdes-Pyrénées Airport

From SKYbrary Wiki

LFBT
Airport
ICAO: LFBT – IATA: LDE
Summary
Name Tarbes-Lourdes-Pyrénées Airport
Region Europe
Territory France FR.gif
Location Ossun, Midi-Pyrenees
Serving Tarbes
Elevation 383.743 m
1,259 ft
1,259 ft383.743 m
Coordinates 43° 10' 56.78" N, 0° 0' 14.63" W
Runways
Designator Length Width Surface ROPS
2/20 3000 m9,842.52 ft
45 m147.638 ft
ASP yes/yes


METAR
Observation LFBT 220830Z AUTO 00000KT 9999 -RA FEW045 BKN068 OVC086 09/09 Q1019 TEMPO 1200 RA OVC004
Station Tarbes Ossun Lourdes
Date/Time 22 October 2019 08:30:00
Wind direction
Wind speed 00 kts
Lowest cloud amount few clouds
Temperature 9°C
Dew point 9°C
Humidity 100%
QNH 1019 hPa
Weather condition light rain

WX
Tag(s) Fog
Low Level Turbulence

Tarbes Airport

ICAO: LFBT IATA: LDE

Description

International airport serving Tarbes.

Climatology

Temperate Marine climate/Oceanic climate (Köppen climate classification Cfb). Moderately cool summer and comparatively warm winter. Prevailing south-westerly winds from the Atlantic Ocean.

Maps

Terrain

Loading map...

Airport Layout

Loading map...


Accidents & Serious Incidents at or in vicinity of LFBT

None on SKYbrary